McAllen, TX

6:08 AM CDT on March 28, 2017 (GMT -0500)
McAllen Miller International

Weather History for KMFE - November, 2012

Change the Weather History Date:

Sunday, November 11, 2012

  Actual Average Record
Temperature  
Mean Temperature 81 °F 71 °F  
Max Temperature 88 °F 81 °F 91 °F (2015)
Min Temperature 73 °F 60 °F 41 °F (2011)
Degree Days  
Heating Degree Days 0 1  
Month to date heating degree days 0 11  
Since 1 July heating degree days 5 16  
Cooling Degree Days 16 7  
Month to date cooling degree days 134 89  
Year to date cooling degree days 5013 4271  
Growing Degree Days 30 (Base 50)    
Moisture  
Dew Point 66 °F    
Average Humidity 63    
Maximum Humidity 79    
Minimum Humidity 46    
Precipitation  
Precipitation T in 0.03 in 0.27 in (1965)
Month to date precipitation T 0.41  
Year to date precipitation 16.63 20.53  
Sea Level Pressure  
Sea Level Pressure 29.88 in    
Wind  
Wind Speed 16 mph (SSE)    
Max Wind Speed 29 mph    
Max Gust Speed 39 mph    
Visibility 10 miles    
Events Rain    
T = Trace of Precipitation, MM = Missing Value Source: NWS Daily Summary

Daily Weather History Graph

Daily Weather History Graph

Search for Another Location

Airport or City:

Trip Planner

Search our weather history database for the weather conditions in past years. The results will help you decide how hot, cold, wet, or windy it might be!

Date:

Astronomy

Nov. 11, 2012 Rise Set
Actual Time 6:48 AM CST 5:44 PM CST
Civil Twilight 6:24 AM CST 6:09 PM CST
Nautical Twilight 5:57 AM CST 6:36 PM CST
Astronomical Twilight 5:29 AM CST 7:04 PM CST
Moon 4:16 AM CST (11/11) 4:00 PM CST (11/11)
Length of Visible Light 11h 44m
Length of Day
10h 55m
Waning Crescent, 7% of the Moon is Illuminated
Nov 11
Waning Crescent
Nov 13
New
Nov 20
First Quarter
Nov 28
Full
Dec 6
Last Quarter

Hourly Weather History & Observations

Time (CST) Temp. Heat Index Dew Point Humidity Pressure Visibility Wind Dir Wind Speed Gust Speed Precip Events Conditions
12:53 AM 75.0 °F - 66.0 °F 73% 29.88 in 10.0 mi SSE 16.1 mph - N/A   Clear
1:53 AM 73.9 °F - 66.0 °F 76% 29.87 in 10.0 mi SSE 16.1 mph 21.9 mph N/A   Clear
2:53 AM 75.0 °F - 64.9 °F 71% 29.84 in 10.0 mi SSE 18.4 mph 28.8 mph N/A   Clear
3:53 AM 73.9 °F - 64.9 °F 73% 29.83 in 10.0 mi SSE 16.1 mph 26.5 mph N/A   Clear
4:53 AM 73.9 °F - 64.0 °F 71% 29.83 in 10.0 mi SSE 16.1 mph 24.2 mph N/A   Clear
5:53 AM 73.0 °F - 64.9 °F 76% 29.83 in 10.0 mi SSE 16.1 mph 26.5 mph N/A   Clear
6:53 AM 73.0 °F - 64.0 °F 73% 29.85 in 10.0 mi SSE 17.3 mph 27.6 mph N/A   Clear
7:53 AM 73.0 °F - 64.0 °F 73% 29.88 in 10.0 mi SSE 17.3 mph 20.7 mph N/A   Partly Cloudy
8:00 AM 73.4 °F - 64.4 °F 73% 29.88 in 10.0 mi SSE 15.0 mph 21.9 mph N/A   Partly Cloudy
8:53 AM 75.9 °F - 64.0 °F 67% 29.89 in 10.0 mi SSE 19.6 mph 26.5 mph N/A   Clear
9:53 AM 80.1 °F 81.7 °F 64.0 °F 58% 29.90 in 10.0 mi SSE 25.3 mph 34.5 mph 0.00 in Rain Light Rain
10:53 AM 82.9 °F 84.4 °F 64.0 °F 53% 29.90 in 9.0 mi SSE 19.6 mph 29.9 mph 0.00 in   Mostly Cloudy
11:53 AM 84.9 °F 86.6 °F 64.9 °F 51% 29.85 in 5.0 mi South 23.0 mph 39.1 mph 0.00 in   Haze
12:53 PM 87.1 °F 88.9 °F 64.9 °F 48% 29.82 in 9.0 mi SSE 27.6 mph 35.7 mph N/A   Overcast
1:53 PM 87.1 °F 88.9 °F 64.9 °F 48% 29.82 in 10.0 mi SSE 17.3 mph 24.2 mph N/A   Mostly Cloudy
2:53 PM 88.0 °F 89.3 °F 64.0 °F 45% 29.82 in 10.0 mi SE 19.6 mph 27.6 mph N/A   Clear
3:53 PM 87.1 °F 88.9 °F 64.9 °F 48% 29.81 in 10.0 mi SE 18.4 mph 27.6 mph N/A   Scattered Clouds
4:53 PM 84.0 °F 86.5 °F 66.9 °F 56% 29.83 in 10.0 mi SE 21.9 mph - N/A   Overcast
5:53 PM 81.0 °F 83.3 °F 66.9 °F 62% 29.87 in 10.0 mi SE 16.1 mph - N/A   Partly Cloudy
6:53 PM 79.0 °F - 66.9 °F 66% 29.91 in 10.0 mi SE 12.7 mph - N/A   Clear
7:53 PM 78.1 °F - 68.0 °F 71% 29.94 in 10.0 mi SE 10.4 mph - N/A   Clear
8:53 PM 77.0 °F - 68.0 °F 74% 29.98 in 10.0 mi ESE 9.2 mph - N/A   Clear
9:53 PM 75.9 °F - 68.0 °F 76% 30.00 in 10.0 mi ESE 10.4 mph - N/A   Clear
10:53 PM 75.0 °F - 66.9 °F 76% 30.04 in 10.0 mi ESE 5.8 mph - N/A   Clear
11:53 PM 73.9 °F - 68.0 °F 82% 30.04 in 10.0 mi East 4.6 mph - N/A   Clear